When you browse on this site, cookies collect data to enhance your experience and personalize the content and advertising you see.
Visit our Privacy Policy to learn more. By continuing to use the site, you agree to this use of cookies and data.
  • Em Portugal
  • Lista de países
  • Para 7 dias
  • Temperatura da água
  • Mapas de satélite
  • Mapa do tempo
  • Widgets de tempo
  • user-avatar
    Iniciar Sessão

    Previsão horária em Khulna

    Hoje, 21 Maio, Terça-feira

    Tempo Temperatura Precipitação Vento Pressão Humidade
    00:00 +31°C° 0 mm 2 m/s 754 mmHg 81%
    01:00 +31°C° 0 mm 2 m/s 754 mmHg 83%
    02:00 +31°C° 0 mm 2 m/s 753 mmHg 84%
    03:00 +30°C° 0 mm 2 m/s 753 mmHg 86%
    04:00 +30°C° 0 mm 2 m/s 753 mmHg 86%
    05:00 +30°C° 0 mm 2 m/s 753 mmHg 87%
    06:00 +31°C° 0 mm 2 m/s 754 mmHg 85%
    07:00 +32°C° 0 mm 2 m/s 754 mmHg 77%
    08:00 +35°C° 0 mm 3 m/s 754 mmHg 68%
    09:00 +36°C° 0 mm 3 m/s 755 mmHg 60%
    10:00 +38°C° 0 mm 3 m/s 754 mmHg 51%
    11:00 +40°C° 0 mm 3 m/s 754 mmHg 43%
    12:00 +42°C° 0 mm 3 m/s 754 mmHg 37%
    13:00 +43°C° 0 mm 4 m/s 754 mmHg 34%
    14:00 +44°C° 0 mm 4 m/s 753 mmHg 31%
    15:00 +45°C° 0 mm 4 m/s 753 mmHg 27%
    16:00 +43°C° 0 mm 5 m/s 752 mmHg 32%
    17:00 +42°C° 0 mm 5 m/s 752 mmHg 36%
    18:00 +38°C° 0 mm 4 m/s 752 mmHg 48%
    19:00 +37°C° 0 mm 4 m/s 752 mmHg 55%
    20:00 +35°C° 0 mm 4 m/s 752 mmHg 62%
    21:00 +34°C° 0 mm 4 m/s 753 mmHg 69%
    22:00 +33°C° 0 mm 4 m/s 753 mmHg 73%
    23:00 +33°C° 0 mm 4 m/s 753 mmHg 77%

    Amanhã, 22 Maio, Quarta-feira

    Tempo Temperatura Precipitação Vento Pressão Humidade
    00:00 +32°C° 0 mm 4 m/s 753 mmHg 81%
    01:00 +32°C° 0 mm 4 m/s 753 mmHg 81%
    02:00 +32°C° 0 mm 4 m/s 753 mmHg 81%
    03:00 +32°C° 0 mm 4 m/s 753 mmHg 81%
    04:00 +32°C° 0 mm 4 m/s 753 mmHg 81%
    05:00 +31°C° 0 mm 3 m/s 753 mmHg 82%
    06:00 +31°C° 0 mm 3 m/s 753 mmHg 82%
    07:00 +33°C° 0 mm 3 m/s 753 mmHg 73%
    08:00 +35°C° 0 mm 4 m/s 753 mmHg 65%
    09:00 +37°C° 0 mm 4 m/s 754 mmHg 56%
    10:00 +40°C° 0 mm 4 m/s 753 mmHg 49%
    11:00 +42°C° 0 mm 5 m/s 753 mmHg 43%
    12:00 +45°C° 0 mm 5 m/s 753 mmHg 37%
    13:00 +45°C° 0 mm 5 m/s 752 mmHg 36%
    14:00 +45°C° 0 mm 6 m/s 751 mmHg 36%
    15:00 +45°C° 0 mm 6 m/s 750 mmHg 35%
    16:00 +42°C° 0 mm 6 m/s 750 mmHg 41%
    17:00 +40°C° 0 mm 7 m/s 750 mmHg 48%
    18:00 +39°C° 0 mm 7 m/s 750 mmHg 54%
    19:00 +36°C° 0 mm 7 m/s 750 mmHg 60%
    20:00 +35°C° 0 mm 7 m/s 751 mmHg 66%
    21:00 +33°C° 0 mm 7 m/s 751 mmHg 73%
    22:00 +33°C° 0 mm 7 m/s 751 mmHg 73%
    23:00 +33°C° 0 mm 7 m/s 752 mmHg 73%

    Depois de amanhã, 23 Maio, Quinta-feira

    Tempo Temperatura Precipitação Vento Pressão Humidade
    00:00 +33°C° 0 mm 6 m/s 752 mmHg 73%
    01:00 +33°C° 0 mm 6 m/s 752 mmHg 73%
    02:00 +32°C° 0 mm 5 m/s 751 mmHg 73%
    03:00 +32°C° 0 mm 5 m/s 751 mmHg 73%
    04:00 +32°C° 0 mm 4 m/s 751 mmHg 73%
    05:00 +32°C° 0 mm 4 m/s 751 mmHg 74%
    06:00 +31°C° 0 mm 3 m/s 752 mmHg 74%
    07:00 +34°C° 0 mm 4 m/s 752 mmHg 67%
    08:00 +36°C° 0 mm 5 m/s 752 mmHg 60%
    09:00 +39°C° 0 mm 6 m/s 753 mmHg 54%
    10:00 +41°C° 0 mm 6 m/s 753 mmHg 47%
    11:00 +43°C° 0 mm 7 m/s 752 mmHg 41%
    12:00 +45°C° 0 mm 7 m/s 752 mmHg 34%
    13:00 +45°C° 0 mm 7 m/s 751 mmHg 34%
    14:00 +45°C° 0 mm 7 m/s 751 mmHg 34%
    15:00 +45°C° 0 mm 7 m/s 750 mmHg 33%
    16:00 +43°C° 0 mm 8 m/s 749 mmHg 40%
    17:00 +40°C° 0 mm 9 m/s 749 mmHg 47%
    18:00 +38°C° 0 mm 9 m/s 748 mmHg 54%
    19:00 +36°C° 2.2 mm 7 m/s 749 mmHg 62%
    20:00 +34°C° 2.2 mm 6 m/s 751 mmHg 69%
    21:00 +33°C° 2.2 mm 4 m/s 752 mmHg 76%
    22:00 +33°C° 0.1 mm 5 m/s 752 mmHg 76%
    23:00 +33°C° 0.1 mm 6 m/s 752 mmHg 76%

    24 Maio, Sexta-feira

    Tempo Temperatura Precipitação Vento Pressão Humidade
    00:00 +32°C° 0.1 mm 7 m/s 752 mmHg 76%
    01:00 +32°C° 0 mm 6 m/s 751 mmHg 76%
    02:00 +32°C° 0 mm 6 m/s 751 mmHg 75%
    03:00 +32°C° 0 mm 6 m/s 751 mmHg 75%
    04:00 +32°C° 0 mm 6 m/s 751 mmHg 74%
    05:00 +32°C° 0 mm 6 m/s 751 mmHg 74%
    06:00 +32°C° 0 mm 6 m/s 751 mmHg 73%
    07:00 +33°C° 0 mm 7 m/s 751 mmHg 68%
    08:00 +35°C° 0 mm 8 m/s 752 mmHg 64%
    09:00 +37°C° 0 mm 9 m/s 752 mmHg 59%
    10:00 +38°C° 0 mm 9 m/s 752 mmHg 56%
    11:00 +39°C° 0 mm 8 m/s 752 mmHg 53%
    12:00 +41°C° 0 mm 8 m/s 751 mmHg 50%
    13:00 +41°C° 0 mm 8 m/s 751 mmHg 48%
    14:00 +41°C° 0 mm 8 m/s 750 mmHg 47%
    15:00 +43°C° 0 mm 8 m/s 749 mmHg 46%
    16:00 +40°C° 0 mm 8 m/s 749 mmHg 51%
    17:00 +39°C° 0 mm 8 m/s 749 mmHg 55%
    18:00 +36°C° 0 mm 7 m/s 748 mmHg 60%
    19:00 +35°C° 0 mm 7 m/s 749 mmHg 65%
    20:00 +34°C° 0 mm 7 m/s 749 mmHg 69%
    21:00 +33°C° 0 mm 7 m/s 750 mmHg 74%
    22:00 +33°C° 0 mm 6 m/s 750 mmHg 75%
    23:00 +33°C° 0 mm 6 m/s 750 mmHg 75%

    25 Maio, Sábado

    Tempo Temperatura Precipitação Vento Pressão Humidade
    00:00 +33°C° 0 mm 5 m/s 750 mmHg 76%
    01:00 +33°C° 0 mm 5 m/s 749 mmHg 76%
    02:00 +33°C° 0 mm 5 m/s 749 mmHg 76%
    03:00 +33°C° 0 mm 5 m/s 748 mmHg 76%
    04:00 +33°C° 0 mm 6 m/s 748 mmHg 76%
    05:00 +33°C° 0 mm 6 m/s 749 mmHg 75%
    06:00 +33°C° 0 mm 7 m/s 749 mmHg 75%
    07:00 +34°C° 0 mm 7 m/s 749 mmHg 71%
    08:00 +35°C° 0 mm 7 m/s 750 mmHg 66%
    09:00 +36°C° 0 mm 7 m/s 750 mmHg 62%
    10:00 +39°C° 0 mm 7 m/s 750 mmHg 57%
    11:00 +41°C° 0 mm 6 m/s 750 mmHg 51%
    12:00 +44°C° 0 mm 6 m/s 750 mmHg 46%
    13:00 +44°C° 0 mm 6 m/s 749 mmHg 45%
    14:00 +44°C° 0 mm 6 m/s 748 mmHg 45%
    15:00 +44°C° 0 mm 6 m/s 747 mmHg 45%
    16:00 +41°C° 0.1 mm 7 m/s 747 mmHg 51%
    17:00 +40°C° 0.1 mm 7 m/s 747 mmHg 56%
    18:00 +38°C° 0.1 mm 7 m/s 747 mmHg 62%
    19:00 +36°C° 0 mm 7 m/s 748 mmHg 67%
    20:00 +35°C° 0 mm 7 m/s 748 mmHg 73%
    21:00 +33°C° 0 mm 6 m/s 749 mmHg 78%
    22:00 +33°C° 0 mm 6 m/s 749 mmHg 78%
    23:00 +33°C° 0 mm 6 m/s 749 mmHg 78%

    26 Maio, Domingo

    Tempo Temperatura Precipitação Vento Pressão Humidade
    00:00 +33°C° 0 mm 6 m/s 749 mmHg 79%
    01:00 +33°C° 0 mm 5 m/s 749 mmHg 78%
    02:00 +33°C° 0 mm 5 m/s 749 mmHg 78%
    03:00 +33°C° 0 mm 4 m/s 749 mmHg 77%
    04:00 +33°C° 0 mm 4 m/s 749 mmHg 78%
    05:00 +33°C° 0 mm 4 m/s 749 mmHg 78%
    06:00 +33°C° 0 mm 4 m/s 749 mmHg 78%
    07:00 +35°C° 0 mm 5 m/s 750 mmHg 72%
    08:00 +36°C° 0 mm 6 m/s 750 mmHg 65%
    09:00 +39°C° 0 mm 7 m/s 751 mmHg 59%
    10:00 +40°C° 0 mm 6 m/s 751 mmHg 55%
    11:00 +41°C° 0 mm 6 m/s 750 mmHg 51%
    12:00 +44°C° 0 mm 6 m/s 750 mmHg 46%
    13:00 +42°C° 0 mm 6 m/s 749 mmHg 48%
    14:00 +42°C° 0 mm 6 m/s 749 mmHg 50%
    15:00 +41°C° 0 mm 6 m/s 748 mmHg 52%
    16:00 +40°C° 0 mm 6 m/s 748 mmHg 55%
    17:00 +39°C° 0 mm 6 m/s 748 mmHg 58%
    18:00 +37°C° 0 mm 5 m/s 748 mmHg 61%
    19:00 +36°C° 0 mm 5 m/s 749 mmHg 64%
    20:00 +35°C° 0 mm 4 m/s 750 mmHg 67%
    21:00 +35°C° 0 mm 4 m/s 751 mmHg 71%
    22:00 +34°C° 0 mm 4 m/s 750 mmHg 72%
    23:00 +34°C° 0 mm 4 m/s 750 mmHg 74%
    Mostrar mais